This demonstration page uses our WeatherBlox Daily Observations layout. Learn more.

Left ArrowRight Arrow

34.02893, -84.19858

Hourly Observations for August 2, 2015

Temp ( °F °C ) Dew Point ( °F °C ) Humidity (%) Winds ( mph kmh ) Pressure ( in mb ) Visibility ( mi km ) Precip ( " mm )
12:53 am 00:53 Clear 75 23.9 62 16.7 64 64 N 6 9 29.90 1013 10 16 0.00 0.00
1:53 am 01:53 Clear 73 22.8 62 16.7 69 69 Calm 29.89 1012 10 16 0.00 0.00
2:53 am 02:53 Clear 74 23.3 61 16.1 64 64 N 3 6 29.88 1012 10 16 0.00 0.00
3:53 am 03:53 Clear 73 22.8 61 16.1 66 66 Calm 29.87 1012 10 16 0.00 0.00
4:53 am 04:53 Clear 69 20.6 61 16.1 76 76 N 3 6 29.88 1012 10 16 0.00 0.00
5:53 am 05:53 Clear 70 21.1 60 15.6 71 71 Calm 29.88 1012 10 16 0.00 0.00
6:53 am 06:53 Sunny 69 20.6 61 16.1 76 76 N 6 9 29.90 1012 10 16 0.00 0.00
7:53 am 07:53 Sunny 72 22.2 62 16.7 71 71 N 5 7 29.90 1012 10 16 0.00 0.00
8:53 am 08:53 Sunny 78 25.6 63 17.2 60 60 VRB 5 7 29.91 1013 10 16 0.00 0.00
9:53 am 09:53 Sunny 82 27.8 60 15.6 47 47 VRB 5 7 29.92 1013 10 16 0.00 0.00
10:53 am 10:53 Sunny 85 29.4 61 16.1 45 45 VRB 7 11 29.93 1014 10 16 0.00 0.00
11:53 am 11:53 Sunny 88 31.1 62 16.7 42 42 ESE 7 11 29.92 1013 10 16 0.00 0.00
12:53 pm 12:53 Sunny 90 32.2 62 16.7 39 39 VRB 6 9 29.90 1013 10 16 0.00 0.00
1:53 pm 13:53 Mostly Sunny 92 33.3 61 16.1 36 36 VRB 3 6 29.89 1012 10 16 0.00 0.00
2:53 pm 14:53 Mostly Sunny 94 34.4 61 16.1 33 33 SE 8 13 29.87 1012 10 16 0.00 0.00
3:53 pm 15:53 Partly Cloudy 94 34.4 60 15.6 32 32 VRB 5 7 29.85 1011 10 16 0.00 0.00
4:53 pm 16:53 Sunny 95 35 61 16.1 32 32 Calm 29.84 1011 10 16 0.00 0.00
5:53 pm 17:53 Partly Cloudy 94 34.4 60 15.6 32 32 Calm 29.83 1010 10 16 0.00 0.00
6:53 pm 18:53 Sunny 94 34.4 61 16.1 33 33 NNE 7 11 29.83 1010 10 16 0.00 0.00
7:53 pm 19:53 Mostly Cloudy 89 31.7 62 16.7 41 41 Calm 29.83 1010 10 16 0.00 0.00
8:53 pm 20:53 Mostly Cloudy 88 31.1 60 15.6 39 39 E 6 9 29.83 1010 10 16 0.00 0.00
9:53 pm 21:53 Clear 84 28.9 64 17.8 51 51 Calm 29.84 1011 10 16 0.00 0.00
10:53 pm 22:53 Clear 81 27.2 67 19.4 62 62 Calm 29.86 1011 10 16 0.00 0.00
11:53 pm 23:53 Clear 79 26.1 68 20 69 69 SE 5 7 29.86 1011 10 16 0.00 0.00

Powered by AerisWeather